Location: Kalberh�ni
(46.4610°N, 7.2453°E)
Time: 01:27:32
(UTC+00:00)

Cosmos 1354 Rocket - Pass Details

Date: 20 June 2021
Orbit: 764 x 783 km, 74.0° (Epoch: 25 July)

Event Time Altitude Azimuth Distance (km) Brightness Sun altitude
Rises 21:44:19 0° 340° (NNW) 3,283 9.1 -15.9°
Reaches altitude 10° 21:46:46 10° 345° (NNW) 2,351 7.8 -16.1°
Maximum altitude 21:52:02 57° 64° (ENE) 918 4.4 -16.5°
Enters shadow 21:54:59 26° 134° (SE) 1,520 5.0 -16.7°
